Вернуться в каталог

SCOUT G-1 DEB

АктивенPO
NORAD 40216·DEBRIS·🇺🇸 United States

Запущен Nov 14, 1986 с Vandenberg Space Force Base

Loading…

Ближайшие Пролёты (ближайшие 24 часа)

TLE

УстаревающийSource: Space-Track

Эпоха: Sep 9, 2026, 12:22 UTC

1 40216U 86088E   26252.51590952  .00002743  00000-0  18342-2 0  9992
2 40216  89.5916 156.9357 0071101 191.5474 168.4078 13.99507681636626

Отслеживайте SCOUT G-1 DEB в реальном времени с AllMySat

Download on the App Store